Onalaska, WI

9:04 PM CDT on August 28, 2016 (GMT -0500)
La Crosse Municipal

Weather History for KLSE - October, 2013

Change the Weather History Date:

Tuesday, October 15, 2013

  Actual Average Record
Temperature  
Mean Temperature 56 °F 50 °F  
Max Temperature 62 °F 60 °F 85 °F (1958)
Min Temperature 49 °F 41 °F 24 °F (1937)
Degree Days  
Heating Degree Days 9 15  
Month to date heating degree days 87 184  
Since 1 July heating degree days 167 344  
Cooling Degree Days 0 0  
Month to date cooling degree days 1 7  
Year to date cooling degree days 917 781  
Growing Degree Days 4 (Base 50)    
Moisture  
Dew Point 47 °F    
Average Humidity 77    
Maximum Humidity 93    
Minimum Humidity 61    
Precipitation  
Precipitation 0.31 in 0.07 in 1.03 in (1911)
Month to date precipitation 3.59 1.15  
Year to date precipitation 32.35 28.67  
Snow  
Snow 0.00 in 0.00 in T in (2009)
Month to date snowfall 0.0 0.0  
Since 1 July snowfall T 0.0  
Snow Depth 0.00 in    
Sea Level Pressure  
Sea Level Pressure 29.79 in    
Wind  
Wind Speed 10 mph (South)    
Max Wind Speed 21 mph    
Max Gust Speed 26 mph    
Visibility 9 miles    
Events Rain    
T = Trace of Precipitation, MM = Missing Value Source: NWS Daily Summary

Daily Weather History Graph

Daily Weather History Graph

Search for Another Location

Airport or City:

Trip Planner

Search our weather history database for the weather conditions in past years. The results will help you decide how hot, cold, wet, or windy it might be!

Date:

Astronomy

Oct. 15, 2013 Rise Set
Actual Time 7:19 AM CDT 6:20 PM CDT
Civil Twilight 6:50 AM CDT 6:49 PM CDT
Nautical Twilight 6:17 AM CDT 7:23 PM CDT
Astronomical Twilight 5:43 AM CDT 7:56 PM CDT
Moon 4:31 PM CDT (10/15) 3:36 AM CDT (10/15)
Length of Visible Light 11h 59m
Length of Day
11h 01m
Waxing Gibbous, 88% of the Moon is Illuminated
Oct 15
Waxing Gibbous
Oct 18
Full
Oct 26
Last Quarter
Nov 3
New
Nov 9
First Quarter

Hourly Weather History & Observations

Time (CDT) Temp. Dew Point Humidity Pressure Visibility Wind Dir Wind Speed Gust Speed Precip Events Conditions
12:53 AM 52.0 °F 45.0 °F 77% 30.01 in 8.0 mi ESE 9.2 mph - 0.03 in Rain Rain
1:53 AM 51.1 °F 46.0 °F 83% 29.97 in 9.0 mi SE 11.5 mph - 0.08 in Rain Rain
2:53 AM 53.1 °F 46.0 °F 77% 29.95 in 10.0 mi SE 9.2 mph - 0.00 in   Overcast
3:53 AM 54.0 °F 45.0 °F 72% 29.90 in 10.0 mi SSE 15.0 mph 21.9 mph 0.00 in   Overcast
4:53 AM 53.1 °F 46.9 °F 80% 29.86 in 6.0 mi SE 13.8 mph - 0.06 in Rain Heavy Rain
5:24 AM 53.6 °F 48.2 °F 82% 29.84 in 8.0 mi SE 12.7 mph - 0.06 in Rain Light Rain
5:53 AM 53.1 °F 48.9 °F 86% 29.83 in 6.0 mi SSE 8.1 mph - 0.09 in Rain Heavy Rain
6:53 AM 54.0 °F 50.0 °F 86% 29.82 in 10.0 mi SSE 9.2 mph - 0.07 in   Overcast
7:53 AM 55.0 °F 51.1 °F 86% 29.78 in 10.0 mi SSE 8.1 mph - 0.00 in   Overcast
8:53 AM 55.9 °F 52.0 °F 87% 29.78 in 10.0 mi South 10.4 mph - N/A   Overcast
9:53 AM 57.0 °F 53.1 °F 87% 29.75 in 9.0 mi SSE 10.4 mph - N/A   Overcast
10:53 AM 59.0 °F 54.0 °F 83% 29.75 in 8.0 mi South 12.7 mph - N/A   Overcast
11:53 AM 57.9 °F 53.1 °F 84% 29.74 in 10.0 mi SW 16.1 mph 24.2 mph 0.00 in Rain Light Rain
11:58 AM 57.2 °F 51.8 °F 82% 29.74 in 10.0 mi SSW 13.8 mph 24.2 mph 0.00 in   Overcast
12:43 PM 59.0 °F 48.2 °F 67% 29.74 in 10.0 mi SSW 16.1 mph 24.2 mph 0.00 in   Overcast
12:53 PM 59.0 °F 48.0 °F 67% 29.73 in 10.0 mi SSW 15.0 mph - 0.00 in   Overcast
1:53 PM 57.9 °F 46.0 °F 65% 29.73 in 10.0 mi SW 13.8 mph - N/A   Overcast
2:53 PM 55.9 °F 44.1 °F 64% 29.73 in 10.0 mi SW 15.0 mph - N/A   Overcast
3:06 PM 55.4 °F 44.6 °F 67% 29.73 in 10.0 mi WSW 15.0 mph 19.6 mph N/A   Overcast
3:18 PM 55.4 °F 44.6 °F 67% 29.74 in 10.0 mi WSW 16.1 mph 21.9 mph N/A   Overcast
3:53 PM 55.0 °F 42.1 °F 62% 29.74 in 10.0 mi SSW 12.7 mph - N/A   Overcast
4:50 PM 53.6 °F 42.8 °F 67% 29.74 in 10.0 mi SW 13.8 mph - N/A   Overcast
4:53 PM 54.0 °F 43.0 °F 66% 29.74 in 10.0 mi SSW 9.2 mph - N/A   Overcast
5:53 PM 52.0 °F 43.0 °F 71% 29.76 in 10.0 mi WSW 12.7 mph - N/A   Overcast
6:53 PM 50.0 °F 44.1 °F 80% 29.77 in 10.0 mi SSW 3.5 mph - N/A   Overcast
7:01 PM 50.0 °F 44.6 °F 82% 29.77 in 10.0 mi Calm Calm - N/A   Overcast
7:53 PM 50.0 °F 43.0 °F 77% 29.78 in 10.0 mi South 5.8 mph - N/A   Overcast
8:53 PM 50.0 °F 44.1 °F 80% 29.78 in 10.0 mi South 8.1 mph - N/A   Overcast
9:53 PM 48.9 °F 46.0 °F 90% 29.77 in 8.0 mi South 9.2 mph - 0.00 in   Overcast
10:53 PM 48.9 °F 46.0 °F 90% 29.77 in 6.0 mi South 4.6 mph - 0.01 in   Overcast
11:15 PM 48.2 °F 46.4 °F 93% 29.76 in 4.0 mi Calm Calm - N/A   Overcast
11:53 PM 48.9 °F 46.9 °F 93% 29.75 in 6.0 mi South 4.6 mph - N/A   Overcast